Wind_Speed
30 29 28 26 26 26 25 24 22 20 18 16 15 14 14 13 13 12 12 11 10 9 8 8 7 7 6 6 6 6 6 8 10 12 13 14 15 16 17 18 19 20 20 21
32 31 31 30 29 28 28 27 26 24 21 18 17 16 15 15 14 14 13 12 11 11 10 10 10 9 9 9 9 9 9 9 10 11 13 14 15 17 18 19 20 20 21 22
33 33 35 33 29 29 29 28 28 26 23 22 21 19 18 17 16 16 15 14 12 12 12 12 12 12 12 12 12 12 12 12 12 13 14 15 16 17 18 19 20 21 23 24
34 35 37 31 31 30 29 28 28 28 27 25 24 22 21 20 19 17 16 15 14 14 13 13 13 14 14 15 15 15 15 15 16 16 17 17 18 19 20 21 22 23 25 26
35 35 35 32 32 29 29 29 29 29 29 28 26 25 25 24 21 19 18 17 17 16 15 16 16 16 17 17 18 18 18 18 18 19 19 19 20 21 22 23 24 26 27 29
34 34 34 31 31 30 30 30 30 30 30 29 29 29 27 26 24 23 21 21 20 20 18 18 18 19 19 19 19 20 20 20 20 21 20 21 22 23 24 25 26 28 30 31
31 33 33 31 29 29 30 30 29 30 31 31 31 31 30 29 28 26 25 24 23 23 22 21 21 21 21 22 21 21 21 22 23 23 23 23 24 25 26 28 30 31 32 34
29 30 29 29 28 30 30 29 29 30 31 31 31 31 31 31 30 29 28 27 26 25 25 24 24 25 24 24 24 24 24 24 24 24 25 25 27 28 29 30 31 33 34 36
28 29 28 27 27 28 29 28 29 29 30 31 31 32 31 31 31 31 30 30 29 28 28 28 27 27 27 26 27 26 26 26 26 26 27 27 28 30 31 32 33 35 37 39
27 26 26 27 27 28 28 28 28 29 29 30 31 31 31 32 32 32 32 31 31 30 29 28 28 28 29 28 28 28 28 28 28 29 29 30 32 33 33 34 36 38 39 41
25 24 25 25 25 26 27 27 28 29 30 31 31 31 31 31 32 32 32 32 32 31 30 29 28 27 27 28 29 30 30 30 30 30 31 33 34 35 36 37 38 40 42 43
22 21 22 22 23 23 25 26 27 27 29 30 31 31 32 32 32 32 32 32 32 32 30 29 29 28 28 29 30 30 30 31 32 32 33 34 35 37 38 39 40 42 44 45
20 20 20 19 20 22 23 24 25 25 26 28 29 30 30 30 31 30 30 31 31 31 30 29 29 28 29 29 29 29 30 31 32 33 34 35 36 37 39 41 42 44 45 47
17 17 17 18 18 19 20 20 22 23 24 25 27 27 27 27 28 28 28 28 28 28 27 28 27 27 27 27 27 28 29 30 31 32 34 36 37 39 41 43 44 46 47 48
15 14 14 15 15 16 17 17 18 19 20 21 22 22 23 24 24 23 24 25 24 24 24 24 25 25 25 26 26 28 29 30 31 33 35 37 39 41 42 44 46 47 48 49
13 12 12 13 13 14 15 16 16 16 17 18 19 19 20 21 20 20 20 20 21 21 21 21 21 21 22 24 26 27 29 31 33 35 37 39 40 42 44 45 47 48 49 49
11 11 11 11 12 13 13 14 15 15 16 17 17 17 17 17 17 17 18 18 19 19 19 18 19 20 23 25 27 29 31 33 35 37 38 40 42 44 45 47 47 48 47 47
10 10 10 10 11 12 12 13 14 15 15 15 14 13 13 14 15 16 16 16 16 17 17 19 21 23 25 27 29 31 33 35 36 38 40 42 44 45 46 46 46 46 46 45
10 10 10 10 10 10 10 11 11 11 11 10 10 11 12 13 14 14 15 15 15 17 19 21 23 25 27 29 31 33 35 37 39 40 41 43 43 44 44 44 44 43 43 42
10 10 9 9 8 8 7 7 7 8 9 10 11 11 12 13 13 13 14 16 18 20 22 24 26 28 30 32 34 36 38 39 40 40 41 42 42 42 42 41 41 40 40 39
9 9 8 8 7 7 7 8 8 9 10 10 10 11 12 13 14 15 17 19 21 23 25 27 29 31 33 35 37 38 39 39 40 40 40 40 40 40 39 39 38 38 37 37
10 9 8 8 8 9 9 9 9 10 10 11 12 13 14 15 17 18 20 22 24 26 28 30 32 34 35 37 38 38 38 38 39 38 38 38 38 38 37 37 36 35 35 35
10 10 9 9 9 8 8 9 10 11 12 13 14 16 17 19 20 22 24 25 27 29 31 32 34 35 36 37 37 37 37 37 37 36 36 36 35 35 35 35 34 34 33 33
12 12 11 10 10 10 10 11 12 13 14 15 17 18 20 21 23 25 26 28 29 30 32 33 34 35 36 36 36 35 34 34 34 34 34 34 33 33 33 32 32 31 31 30
12 11 10 10 11 11 12 13 14 16 17 18 19 21 22 24 25 27 28 29 31 32 33 34 34 34 34 33 33 32 31 31 31 32 32 32 32 31 31 30 30 29 29 29
11 11 11 11 12 14 15 16 17 18 19 21 22 24 25 26 27 29 30 30 31 32 32 32 32 31 31 30 30 29 29 29 30 30 30 30 30 30 29 28 28 28 28 28
12 12 13 14 15 16 17 19 20 21 22 23 24 25 26 27 28 29 30 30 30 30 30 30 29 29 28 28 27 27 27 27 28 28 29 29 29 28 27 26 26 26 26 26
Wind_Direction
238 239 244 246 246 247 248 249 251 254 259 262 268 270 268 271 277 283 290 292 286 282 286 279 271 264 262 262 260 260 257 248 237 234 235 237 241 244 246 250 254 257 262 265
246 248 249 247 245 247 248 249 252 252 253 256 261 261 260 263 269 277 281 282 278 274 277 272 269 265 261 259 259 258 256 249 245 245 244 247 251 252 253 257 260 263 265 268
249 251 252 251 249 249 249 249 251 250 249 249 250 252 253 256 260 268 271 271 271 272 270 267 264 262 261 259 257 256 256 255 253 252 254 255 258 260 261 262 263 266 270 272
250 252 253 253 251 250 250 249 248 246 243 243 244 247 249 251 254 260 263 262 265 270 266 263 262 260 260 260 259 257 256 256 256 259 259 260 263 265 266 268 269 270 274 276
250 253 257 254 253 251 250 247 245 243 242 241 241 244 246 247 249 255 259 258 260 264 264 261 261 261 261 263 263 259 256 256 257 260 262 266 268 270 271 272 274 277 278 279
251 252 254 255 253 251 250 247 242 242 242 241 240 242 243 243 244 249 254 257 258 259 260 260 261 261 262 263 259 257 256 256 259 260 262 266 269 272 274 275 277 279 279 280
252 253 254 254 253 250 248 246 242 240 239 238 238 239 241 241 242 245 249 253 255 256 257 259 260 262 264 263 258 256 256 258 261 263 268 271 273 275 276 278 279 279 280 281
252 253 254 253 251 248 247 245 242 239 237 236 236 236 238 238 239 243 246 249 252 254 256 258 260 259 262 260 257 257 257 260 263 266 270 272 274 276 278 278 279 280 281 282
251 252 253 252 250 247 245 243 239 235 234 234 234 235 236 236 238 242 245 248 251 253 256 258 258 257 258 258 257 258 259 261 264 267 270 274 276 278 278 278 280 282 284 285
252 252 252 250 248 245 242 239 236 234 233 232 233 234 236 237 238 241 243 246 250 253 255 256 256 257 258 257 257 260 261 263 266 270 273 275 277 279 281 283 284 286 288 288
254 253 252 249 245 242 238 235 234 233 232 231 232 234 235 237 238 239 241 245 247 250 253 254 255 256 256 257 259 261 263 267 268 271 274 276 278 281 284 286 288 289 290 290
250 249 248 244 240 236 233 232 232 231 230 230 231 231 233 236 238 239 241 244 246 247 250 252 254 255 257 259 260 263 267 269 270 271 274 278 281 284 286 288 289 290 291 292
246 243 242 239 236 233 230 229 229 230 228 228 229 230 233 235 235 238 243 246 246 246 249 251 254 258 261 264 265 265 269 271 271 274 278 281 284 287 289 289 290 292 293 294
242 239 236 234 232 230 229 228 226 224 225 226 225 228 231 234 236 239 242 244 243 244 247 251 254 258 262 265 266 269 272 274 276 280 283 285 288 290 291 292 294 295 296 297
237 235 231 228 224 221 220 219 221 220 219 219 221 224 227 228 233 236 237 238 241 245 249 251 255 258 262 267 271 274 276 279 283 285 287 289 291 293 294 296 297 298 298 299
224 221 215 210 207 205 205 207 210 213 216 217 219 224 225 227 229 233 238 241 245 249 253 256 260 265 270 274 278 280 283 285 287 289 291 293 295 296 297 298 299 300 300 301
206 205 203 199 198 196 196 199 205 209 212 212 215 217 221 225 230 237 240 243 246 250 256 263 268 273 277 280 283 285 288 290 292 293 295 296 298 298 299 300 301 301 302 303
188 187 187 185 187 187 190 195 202 206 205 206 211 213 217 222 232 239 242 247 253 260 266 273 278 282 284 286 288 290 292 294 295 297 298 299 300 301 302 302 302 303 303 303
178 173 172 174 175 178 178 181 189 194 200 208 215 222 228 237 245 251 258 265 272 276 280 283 286 288 290 292 294 295 296 297 298 299 300 301 302 303 303 303 303 303 303 304
175 174 173 174 174 179 182 187 199 209 220 226 230 237 246 254 262 269 276 279 281 284 287 289 291 293 295 296 297 298 299 300 300 301 302 303 303 304 304 304 305 305 305 305
191 195 197 201 201 204 209 217 224 230 236 240 244 251 260 267 273 278 281 284 286 289 291 293 294 296 297 298 299 300 301 301 302 302 303 304 304 304 305 306 306 306 306 306
203 206 208 211 214 217 222 229 235 241 250 257 263 267 272 276 279 283 286 289 291 293 294 295 297 298 299 300 301 301 301 302 302 303 303 304 305 305 306 306 307 308 307 307
208 213 216 219 223 228 236 245 253 259 265 269 272 276 279 282 284 287 290 292 294 295 297 298 299 300 301 301 301 302 302 302 303 303 304 305 306 305 306 307 307 308 308 307
216 220 223 229 236 241 248 255 260 265 270 273 276 280 283 285 288 290 291 293 295 297 298 300 300 301 301 301 302 302 302 303 303 304 305 306 307 306 307 307 307 307 308 307
219 221 229 238 244 249 255 263 270 274 277 280 283 286 287 289 291 292 294 295 296 298 299 300 301 301 302 302 302 303 303 304 305 307 308 308 308 308 308 308 308 308 309 309
227 237 248 254 258 263 268 272 276 278 280 283 285 287 289 291 292 293 295 296 297 298 300 301 302 302 303 303 303 304 305 306 307 308 309 310 310 309 309 309 310 311 311 312
243 252 261 266 269 271 274 277 279 281 284 286 288 289 290 292 293 294 296 297 298 300 300 301 303 304 304 304 304 306 307 307 308 310 311 311 311 310 311 312 313 313 314 314
Height
5808 5810 5812 5814 5816 5818 5820 5822 5824 5827 5828 5828 5828 5827 5827 5827 5827 5826 5826 5825 5825 5825 5825 5825 5825 5825 5826 5826 5827 5827 5827 5828 5829 5830 5832 5833 5834 5836 5837 5838 5839 5839 5840 5840
5799 5801 5803 5805 5808 5811 5813 5815 5816 5819 5821 5822 5822 5822 5823 5823 5823 5823 5823 5823 5822 5822 5822 5822 5822 5823 5824 5824 5825 5825 5826 5826 5827 5828 5829 5830 5831 5831 5832 5833 5833 5834 5834 5834
5790 5792 5792 5796 5801 5803 5804 5807 5809 5811 5815 5815 5816 5817 5818 5818 5819 5819 5819 5819 5819 5819 5819 5819 5819 5820 5821 5821 5822 5822 5823 5824 5824 5825 5826 5826 5827 5827 5827 5828 5828 5828 5828 5827
5780 5783 5783 5791 5791 5793 5795 5798 5800 5802 5805 5807 5809 5810 5812 5813 5814 5814 5815 5815 5815 5815 5815 5815 5816 5817 5817 5818 5818 5819 5819 5820 5820 5821 5821 5822 5822 5822 5822 5822 5822 5822 5821 5820
5771 5772 5774 5780 5781 5784 5786 5788 5791 5793 5796 5798 5801 5803 5805 5806 5807 5809 5809 5810 5810 5811 5811 5811 5812 5813 5813 5813 5813 5814 5815 5815 5816 5816 5816 5816 5817 5817 5816 5816 5815 5814 5813 5812
5761 5763 5765 5771 5772 5774 5777 5779 5781 5783 5786 5789 5792 5795 5798 5799 5801 5802 5803 5804 5805 5806 5806 5807 5807 5808 5808 5808 5809 5809 5809 5810 5810 5810 5810 5811 5810 5810 5809 5809 5808 5807 5805 5804
5751 5753 5756 5760 5762 5765 5768 5770 5772 5774 5777 5780 5782 5786 5789 5791 5793 5795 5796 5798 5799 5800 5801 5801 5802 5802 5802 5803 5803 5803 5804 5804 5804 5804 5804 5804 5804 5803 5802 5801 5800 5798 5797 5795
5743 5744 5749 5750 5753 5755 5756 5759 5762 5764 5767 5770 5773 5776 5779 5782 5784 5787 5789 5790 5792 5793 5794 5795 5795 5796 5796 5796 5797 5797 5797 5798 5798 5798 5798 5797 5796 5796 5795 5793 5791 5789 5787 5785
5735 5738 5739 5741 5742 5744 5746 5749 5752 5755 5758 5761 5764 5767 5770 5773 5776 5779 5781 5783 5784 5786 5787 5787 5788 5788 5789 5789 5789 5790 5791 5791 5791 5791 5790 5789 5788 5787 5786 5784 5782 5780 5777 5775
5726 5728 5729 5731 5733 5735 5737 5740 5743 5746 5749 5752 5755 5759 5762 5765 5768 5770 5773 5775 5777 5778 5778 5779 5780 5780 5781 5782 5782 5783 5783 5784 5783 5783 5782 5781 5780 5778 5776 5774 5772 5769 5766 5763
5718 5720 5721 5722 5724 5726 5728 5731 5734 5737 5741 5744 5747 5751 5754 5757 5759 5762 5765 5767 5769 5770 5771 5772 5772 5773 5773 5774 5775 5775 5775 5775 5775 5774 5773 5772 5770 5769 5766 5764 5761 5758 5755 5751
5711 5712 5713 5715 5716 5718 5720 5723 5726 5729 5732 5736 5739 5743 5746 5749 5751 5754 5757 5758 5760 5762 5763 5764 5765 5765 5766 5767 5767 5767 5767 5767 5766 5765 5764 5762 5761 5759 5756 5753 5750 5747 5743 5739
5704 5705 5706 5708 5710 5712 5714 5717 5719 5722 5725 5728 5732 5736 5739 5741 5744 5746 5749 5751 5752 5754 5755 5756 5757 5758 5758 5759 5759 5759 5759 5758 5757 5756 5754 5752 5750 5748 5745 5742 5738 5734 5730 5726
5698 5700 5701 5703 5704 5706 5709 5711 5714 5717 5720 5723 5726 5729 5732 5735 5737 5740 5742 5743 5745 5746 5747 5748 5749 5750 5750 5751 5751 5750 5750 5749 5748 5746 5745 5742 5740 5737 5733 5729 5726 5721 5717 5712
5694 5695 5696 5698 5700 5702 5704 5707 5710 5713 5715 5718 5721 5724 5727 5729 5732 5734 5735 5737 5738 5739 5740 5741 5742 5743 5743 5743 5743 5743 5742 5740 5739 5737 5735 5732 5729 5725 5721 5717 5712 5708 5703 5698
5690 5691 5693 5694 5696 5698 5701 5704 5706 5709 5712 5715 5717 5720 5722 5725 5727 5729 5730 5731 5733 5734 5735 5735 5735 5736 5736 5736 5736 5735 5733 5731 5729 5727 5724 5721 5717 5713 5709 5704 5699 5694 5689 5684
5688 5689 5691 5692 5694 5697 5699 5701 5704 5706 5709 5711 5714 5716 5718 5720 5722 5724 5725 5727 5728 5728 5729 5729 5730 5730 5730 5729 5728 5726 5724 5722 5719 5716 5713 5709 5705 5701 5696 5691 5686 5681 5676 5670
5686 5688 5690 5692 5694 5695 5697 5699 5702 5704 5707 5708 5711 5713 5715 5717 5718 5720 5721 5722 5723 5723 5724 5724 5724 5723 5722 5721 5720 5718 5715 5712 5709 5705 5702 5697 5693 5688 5683 5678 5673 5668 5663 5658
5686 5688 5689 5691 5693 5695 5696 5699 5701 5703 5705 5707 5709 5711 5713 5714 5716 5717 5717 5718 5718 5718 5718 5717 5717 5716 5715 5713 5711 5708 5705 5701 5698 5694 5690 5685 5681 5676 5671 5666 5661 5656 5651 5646
5686 5688 5690 5691 5693 5695 5697 5699 5701 5703 5704 5706 5708 5709 5710 5711 5712 5712 5712 5713 5713 5712 5712 5711 5709 5708 5706 5703 5700 5697 5694 5690 5686 5682 5678 5674 5669 5664 5659 5654 5650 5645 5640 5635
5686 5688 5689 5691 5693 5694 5696 5698 5699 5701 5702 5704 5705 5706 5707 5707 5707 5707 5707 5707 5706 5706 5704 5703 5701 5699 5696 5693 5690 5687 5683 5679 5675 5671 5667 5662 5658 5653 5648 5644 5639 5634 5629 5625
5685 5687 5689 5690 5692 5693 5694 5696 5697 5699 5700 5701 5701 5702 5702 5702 5702 5702 5702 5701 5699 5698 5696 5694 5692 5689 5686 5683 5680 5676 5672 5668 5664 5660 5656 5652 5647 5643 5638 5634 5629 5625 5620 5615
5684 5686 5688 5689 5690 5691 5693 5694 5695 5696 5696 5697 5697 5697 5697 5697 5697 5696 5695 5693 5692 5690 5688 5685 5683 5679 5676 5673 5669 5666 5662 5658 5654 5650 5646 5642 5637 5633 5629 5624 5620 5615 5611 5607
5683 5684 5686 5687 5688 5689 5690 5691 5692 5692 5693 5693 5693 5692 5692 5691 5690 5689 5687 5685 5683 5681 5679 5676 5673 5670 5667 5663 5659 5656 5652 5648 5645 5641 5637 5633 5628 5624 5620 5615 5611 5607 5603 5598
5681 5682 5684 5685 5686 5686 5687 5687 5688 5688 5688 5687 5687 5686 5685 5684 5683 5681 5679 5677 5675 5672 5670 5667 5664 5660 5657 5654 5650 5646 5643 5640 5636 5632 5628 5624 5619 5615 5611 5607 5603 5599 5595 5591
5679 5680 5681 5682 5682 5683 5683 5683 5683 5683 5682 5681 5680 5679 5678 5676 5674 5673 5670 5668 5666 5663 5660 5657 5654 5651 5648 5645 5641 5638 5635 5631 5627 5623 5620 5615 5611 5607 5603 5599 5595 5591 5587 5583
5676 5677 5677 5678 5678 5678 5678 5678 5677 5676 5675 5674 5673 5671 5670 5668 5666 5664 5662 5659 5657 5654 5651 5648 5645 5642 5639 5636 5633 5630 5627 5623 5620 5616 5612 5608 5604 5600 5596 5592 5588 5584 5580 5576